SCP
0 0 0 0 0 0 0 0 0 0 0 0 0 0 0 0 0 0 0 0 0 0 0 0 0 0 0 0 0 0 0 0 0 0 1 0 0 0 0 0 0 0 0 0
0 0 0 0 0 0 0 0 0 0 0 0 0 0 0 0 0 0 0 0 0 0 0 0 0 0 0 0 0 0 0 0 0 0 0 0 0 0 0 0 0 0 0 0
0 0 0 0 0 0 0 0 0 0 0 0 0 0 0 0 0 0 0 0 0 0 0 0 0 0 0 0 0 0 0 0 0 0 0 0 0 0 0 0 0 0 0 0
0 0 0 0 0 0 0 0 0 0 0 0 0 0 0 0 0 0 0 0 0 0 0 0 0 0 0 0 0 0 0 0 0 0 0 0 0 0 0 0 0 0 0 0
0 0 0 0 0 0 0 0 0 0 0 0 0 0 0 0 0 0 0 0 0 0 0 0 0 0 0 0 0 0 0 0 0 0 0 0 0 0 0 0 0 0 0 0
0 0 0 0 0 0 0 0 0 0 0 0 0 0 0 0 0 0 0 0 0 0 0 0 0 0 0 0 0 0 0 0 0 0 0 0 0 0 0 0 0 0 0 0
0 0 0 0 0 0 0 0 0 0 0 0 0 0 0 0 0 0 0 0 0 0 0 0 0 0 0 0 0 0 0 0 0 0 0 0 0 0 0 0 0 0 0 0
0 0 0 0 0 0 0 0 0 0 0 0 0 0 0 0 0 0 0 0 0 0 0 0 0 0 0 0 0 0 0 0 0 0 0 0 0 0 0 0 0 0 0 0
0 0 0 0 0 0 0 0 0 0 0 0 0 0 0 0 0 0 0 0 0 0 0 0 0 0 0 0 0 0 0 0 0 0 0 0 0 0 0 0 0 0 0 0
0 0 0 0 0 0 0 0 0 0 0 0 0 0 0 0 0 0 0 0 0 0 0 0 0 0 0 0 0 0 0 0 0 0 0 0 0 0 0 0 0 0 0 0
0 0 0 0 0 0 0 0 0 0 0 0 0 0 0 0 0 0 0 0 0 0 0 0 0 0 0 0 0 0 0 0 0 0 0 0 0 0 0 0 0 0 0 0
0 0 0 0 0 0 0 0 0 0 0 0 0 0 0 0 0 0 0 0 0 0 0 0 0 0 0 0 0 0 0 0 0 0 0 0 0 0 0 0 0 0 0 0
0 0 0 0 0 0 0 0 0 0 0 0 0 0 0 0 0 0 0 0 0 0 0 0 0 0 0 0 0 0 0 0 0 0 0 0 0 0 0 0 0 0 0 0
0 0 0 0 0 0 0 0 0 0 0 0 0 0 0 0 0 0 0 0 0 0 0 0 0 0 0 0 0 0 0 0 0 0 0 0 0 0 0 0 0 0 0 0
0 0 0 0 0 0 0 0 0 0 0 0 0 0 0 0 0 0 0 0 0 0 0 0 0 0 0 0 0 0 0 0 0 0 0 0 0 0 0 0 0 0 0 0
0 0 0 0 0 0 0 0 0 0 0 0 0 0 0 0 0 0 0 0 0 0 0 0 0 0 0 0 0 0 0 0 0 0 0 0 0 0 0 0 0 0 0 0
0 0 0 0 0 0 0 0 0 0 0 0 0 0 0 0 0 0 0 0 0 0 0 0 0 0 0 0 0 0 0 0 0 0 0 0 0 0 0 0 0 0 0 0
0 0 0 0 0 0 0 0 0 0 0 0 0 0 0 0 0 0 0 0 0 0 0 0 0 0 0 0 0 0 0 0 0 0 0 0 0 0 0 0 0 0 0 0
0 0 0 0 0 0 0 0 0 0 0 0 0 0 0 0 0 0 0 0 0 0 0 0 0 0 0 0 0 0 0 0 0 0 0 0 0 0 0 0 0 0 0 0
0 0 0 0 0 0 0 0 0 0 0 0 0 0 0 0 0 0 0 0 0 0 0 0 0 0 0 0 0 0 0 0 0 0 0 0 0 0 0 0 0 0 0 0
0 0 0 0 0 0 0 0 0 0 0 0 0 0 0 0 0 0 0 0 0 0 0 0 0 0 0 0 0 0 0 0 0 0 0 0 0 0 0 0 0 0 0 0
0 0 0 0 0 0 0 0 0 0 0 0 0 0 0 0 0 0 0 0 0 0 0 0 0 0 0 0 0 0 0 0 0 0 0 0 0 0 0 0 0 0 0 0
0 0 0 0 0 0 0 0 0 0 0 0 0 0 0 0 0 0 0 0 0 0 0 0 0 0 0 0 0 0 0 0 0 0 0 0 0 0 0 0 0 0 0 0
0 0 0 0 0 0 0 0 0 0 0 0 0 0 0 0 0 0 0 0 0 0 0 0 0 0 0 0 0 0 0 0 0 0 0 0 0 0 0 0 0 0 0 0
0 0 0 0 0 0 0 0 0 0 0 0 0 0 0 0 0 0 0 0 0 0 0 0 0 0 0 0 0 0 0 0 0 0 0 0 0 0 0 0 0 0 0 0
0 0 0 0 0 0 0 0 0 0 0 0 0 0 0 0 0 0 0 0 0 0 0 0 0 0 0 0 0 0 0 0 0 0 0 0 0 0 0 0 0 0 0 0
0 0 0 0 0 0 0 0 0 0 0 0 0 0 0 0 0 0 0 0 0 0 0 0 0 0 0 0 0 0 0 0 0 0 0 0 0 0 0 0 0 0 0 0
Wind_Speed
8 8 6 7 9 9 10 10 10 10 10 10 7 6 5 3 2 1 1 1 2 2 2 2 2 2 2 2 2 2 3 3 4 4 3 4 4 4 4 4 4 5 4 4
6 7 7 9 10 10 12 11 11 10 11 7 4 3 3 3 3 2 2 2 2 2 2 2 2 2 1 1 1 2 2 2 2 3 3 3 4 4 4 4 3 4 4 4
5 4 4 9 9 9 7 6 8 11 10 4 4 5 6 5 4 4 3 2 2 2 3 2 2 2 2 2 1 2 2 2 2 3 3 3 3 3 4 4 3 3 3 4
3 1 9 7 3 5 7 7 7 6 6 6 6 4 3 3 4 3 3 2 2 2 2 1 1 1 1 2 2 2 1 1 1 2 3 3 3 3 3 3 3 3 3 3
3 5 8 5 2 2 6 8 6 6 5 4 2 1 3 2 3 3 3 2 2 1 1 1 1 1 2 2 2 2 2 2 2 2 2 2 3 3 2 2 2 2 2 3
4 5 7 5 4 4 2 6 3 3 4 3 2 2 5 2 1 1 1 1 1 1 1 1 1 1 2 2 2 2 2 2 1 2 2 2 2 2 1 2 2 2 1 2
5 6 6 5 5 2 3 5 4 3 3 3 4 4 2 1 1 1 1 1 1 2 2 1 1 2 2 1 2 2 1 1 1 1 2 2 1 1 1 1 1 1 1 1
4 5 7 4 3 0 4 4 4 3 2 1 1 2 3 2 2 2 2 2 2 2 1 1 1 2 2 0 0 0 1 1 1 1 0 0 1 1 1 2 2 1 1 1
4 3 2 2 2 3 3 3 4 4 3 2 3 3 3 3 2 2 2 2 2 2 2 2 1 2 2 0 1 1 1 1 1 1 0 1 1 1 1 2 2 1 1 1
1 3 3 4 4 5 4 3 4 4 3 3 3 3 2 2 3 3 3 3 2 3 3 2 2 2 1 0 1 1 1 1 1 1 1 0 0 1 1 2 2 2 2 2
3 3 4 4 5 5 5 5 5 5 5 4 3 3 3 3 3 3 3 3 3 3 3 2 3 3 2 2 2 2 1 1 1 1 0 1 1 0 1 2 3 3 3 2
4 3 2 4 4 4 4 4 4 4 5 5 4 3 3 3 3 3 3 3 3 3 3 3 3 3 3 3 2 2 1 1 1 0 0 0 1 2 3 2 3 3 3 3
3 2 1 2 4 4 3 4 4 4 4 4 4 3 3 3 3 4 4 4 3 3 3 3 4 4 4 3 2 1 0 1 1 0 0 0 0 0 2 3 3 2 2 3
3 2 2 3 3 4 4 5 5 5 5 4 4 4 4 4 4 5 5 4 4 4 4 4 4 4 4 3 3 2 1 1 1 0 1 1 1 1 1 1 2 2 3 3
6 4 2 3 4 5 5 5 6 6 6 6 5 5 5 5 5 4 4 4 4 4 4 4 4 4 4 3 3 2 2 1 1 1 1 1 1 1 1 1 2 2 2 3
4 4 4 5 5 5 6 6 6 5 5 5 5 5 5 4 4 4 5 4 4 4 4 4 4 4 4 3 3 2 2 3 2 1 1 1 1 1 1 2 2 2 2 2
4 4 4 5 5 5 5 4 4 4 4 4 4 4 4 5 5 5 5 4 3 3 3 4 4 4 4 3 2 2 2 2 3 2 1 2 2 2 2 2 2 3 3 4
3 2 3 2 3 3 4 4 4 4 3 3 4 4 4 4 4 4 4 4 4 4 4 4 4 4 4 3 2 2 2 2 2 2 2 2 2 2 2 3 3 4 3 4
5 5 5 5 4 3 4 4 4 4 4 3 4 4 3 3 3 3 4 4 4 4 5 5 7 5 4 4 4 2 2 2 2 2 2 4 3 3 3 3 4 4 4 4
6 6 6 5 5 5 4 4 4 4 4 3 3 3 4 4 4 4 3 3 3 3 4 5 5 4 4 5 5 2 2 2 3 3 3 3 3 3 3 4 4 4 4 4
5 6 6 5 5 5 4 4 4 4 4 3 3 3 3 4 4 3 3 3 4 5 5 7 4 4 4 5 5 2 2 3 3 3 3 3 3 4 4 4 4 4 4 4
4 4 5 5 4 5 4 4 4 4 4 4 4 3 3 4 4 4 3 2 4 8 5 3 3 6 7 7 3 3 3 3 3 3 3 3 4 4 4 4 4 4 4 4
4 4 4 4 4 4 4 4 4 4 4 4 4 4 4 4 3 3 4 4 4 8 6 4 7 11 11 5 3 3 4 4 4 4 4 4 4 4 4 5 4 4 4 4
4 4 4 4 4 4 5 5 4 4 4 4 4 4 4 4 3 2 3 8 10 10 5 7 12 12 10 3 3 3 3 4 4 4 4 4 4 4 4 5 4 4 4 5
4 4 4 4 4 4 5 5 4 4 4 4 4 4 3 3 3 4 4 5 9 9 5 8 11 11 6 3 4 4 4 4 4 4 4 4 4 4 4 4 4 4 4 4
4 4 3 3 3 4 4 4 4 4 4 5 4 4 4 3 4 4 4 5 6 8 6 5 5 7 4 4 4 4 4 5 5 4 4 4 4 4 4 4 5 4 4 4
4 4 3 3 4 4 4 4 4 5 5 5 6 5 5 5 4 4 5 4 5 5 5 5 5 5 5 4 4 4 4 4 4 4 4 4 4 4 4 5 4 4 4 4
Wind_Direction
259 265 246 246 242 226 221 219 222 235 237 250 234 233 239 239 218 171 174 177 186 199 221 217 214 215 208 205 193 170 168 183 199 200 193 183 184 189 187 190 194 191 188 194
270 264 258 262 251 238 236 232 237 248 255 253 241 227 232 234 217 227 232 225 216 205 212 218 210 208 198 193 194 164 167 190 196 187 185 186 187 186 186 192 193 187 187 192
254 263 284 255 234 230 231 223 218 237 248 237 238 228 225 225 215 227 240 233 223 218 221 219 207 192 194 194 169 157 165 176 185 181 184 191 187 183 192 192 186 188 191 193
242 215 237 246 206 219 230 243 233 240 251 234 226 232 239 216 205 229 242 235 230 228 224 222 195 180 180 160 151 154 152 158 174 175 185 188 178 184 197 186 182 188 194 198
208 234 262 281 292 242 228 252 240 237 253 258 221 358 298 253 218 227 242 232 220 204 190 176 167 170 154 152 151 154 170 186 190 176 176 176 178 184 187 176 179 183 184 185
210 227 243 264 285 282 218 259 272 245 239 239 181 227 255 254 242 222 163 138 136 114 105 120 148 138 138 154 158 186 200 200 189 176 174 181 190 186 175 168 180 174 180 191
224 242 264 293 311 10 185 266 308 284 256 221 217 235 224 156 100 118 114 104 113 118 121 143 131 120 133 150 198 221 186 155 152 174 183 187 176 167 161 165 158 166 186 217
203 232 261 330 22 169 271 319 334 330 322 298 25 63 81 90 90 95 90 76 96 101 70 56 106 118 115 162 286 73 124 130 135 154 182 143 144 166 161 161 161 181 196 237
201 229 309 350 341 323 343 353 354 1 4 84 98 91 85 76 69 64 79 79 78 94 63 29 40 110 117 339 64 93 102 110 109 70 76 143 168 183 167 162 171 192 192 225
297 306 327 348 356 3 6 8 11 28 37 56 84 84 78 76 66 53 54 56 58 71 63 29 22 38 50 5 77 95 95 71 70 78 38 57 162 185 180 182 188 202 205 222
287 302 334 348 354 1 15 29 37 34 32 37 58 55 56 57 52 52 49 46 56 61 53 29 25 23 10 17 52 65 52 32 25 41 20 355 357 281 235 216 208 212 214 208
261 282 284 309 334 354 13 14 19 30 28 26 42 48 46 43 42 51 50 47 49 47 38 24 27 20 10 14 43 67 41 13 357 356 358 13 19 360 355 311 295 279 262 248
282 306 323 335 350 4 13 13 20 31 31 22 25 40 56 53 48 51 46 42 40 34 28 24 27 20 8 8 23 48 37 324 327 332 320 306 298 337 339 351 354 330 300 284
0 27 33 6 1 9 19 20 29 36 33 32 40 50 55 54 50 47 38 27 29 33 28 26 23 9 357 3 10 9 3 339 332 310 292 293 291 290 284 296 314 319 319 306
15 31 39 23 26 27 26 33 38 35 35 36 44 49 51 49 43 34 25 21 29 29 20 18 14 356 350 1 5 0 356 347 342 329 310 291 285 289 290 281 279 286 302 307
14 33 39 36 30 28 31 35 38 32 33 36 37 37 40 42 39 31 23 22 25 14 1 360 353 342 345 353 357 352 346 334 334 328 319 310 297 282 278 277 276 273 271 275
32 25 19 14 17 25 28 27 30 31 33 32 28 28 34 35 32 23 12 7 7 351 344 343 336 337 340 343 342 335 329 327 328 326 305 291 284 275 271 271 277 280 277 277
41 35 28 24 25 21 17 18 23 26 25 18 21 31 31 27 17 1 349 349 358 357 348 337 333 336 340 338 332 321 314 307 303 298 296 290 286 277 276 275 276 280 285 288
33 38 36 29 25 25 19 15 16 15 12 15 22 22 15 9 360 347 346 355 357 347 338 337 339 345 340 333 330 319 311 307 304 298 293 293 296 287 281 279 279 280 283 284
28 28 29 27 27 29 19 11 10 9 4 7 13 13 6 355 349 345 350 347 329 309 315 329 336 335 328 324 327 315 307 299 294 293 291 283 280 280 280 280 278 277 275 273
20 22 22 20 18 16 11 4 5 360 354 360 2 352 340 334 334 335 339 332 325 324 328 335 337 322 315 319 324 318 307 300 294 287 286 284 282 281 279 278 277 276 274 273
13 14 11 8 7 2 357 357 358 354 353 353 350 343 340 335 332 329 319 301 314 326 330 321 315 318 323 326 321 310 302 297 293 288 284 283 280 279 279 278 277 277 274 269
2 2 359 354 350 343 345 352 351 350 347 343 340 337 331 320 316 317 319 322 320 322 324 312 317 323 326 330 316 306 301 296 292 289 286 284 282 279 279 280 279 279 279 277
356 353 347 341 344 352 348 341 339 338 330 323 325 325 322 319 315 304 299 315 323 323 320 317 323 323 326 325 311 303 298 295 291 285 282 281 280 279 278 278 277 279 277 277
345 343 343 346 347 340 333 331 333 331 327 325 324 325 319 308 301 308 309 309 316 322 317 318 321 323 323 308 303 299 295 289 288 287 280 281 283 284 284 283 281 278 276 274
340 336 331 328 323 322 326 328 327 325 324 322 321 320 316 310 303 303 303 305 308 316 318 310 310 313 306 299 295 294 293 297 303 301 295 291 287 285 285 286 286 283 279 275
336 331 329 330 333 333 329 325 322 321 321 318 314 315 317 316 313 311 309 308 309 308 305 302 302 301 299 298 295 293 293 292 291 291 291 289 286 284 285 283 282 281 280 278